Home > Weather > Jujuy > Past weeks

Flag for Argentina Past Weather in Jujuy, Jujuy, Argentina — Yesterday and Last 2 Weeks

Now
54 °F

Mostly cloudy.


Feels Like: 54 °F
Forecast: 47 / 51 °F
Wind: 2 mph from West

Location: Jujuy Aerodrome

Current Time: May 27, 2016 at 3:48:43 AM

Latest Report: May 27, 2016 at 2:00 AM


Visibility: 5 mi

Pressure: 30.27 "Hg (21.40 "Hg at 2895m altitude)

Humidity: 88%

Dew Point: 50 °F

Location of JujuyLocation

Past Weather in Jujuy — Graph

°F

Jujuy Temperature Yesterday

Maximum temperature yesterday: 63 °F (at 1:00 PM)
Minimum temperature yesterday: 55 °F (at 11:00 PM)
Average temperature yesterday: 59 °F

High & Low Weather Summary for the Past Weeks

 TemperatureHumidityPressure
High70 °F (May 15, 12:00 PM)100% (May 12, 6:00 AM)30.39 "Hg (May 12, 6:00 AM)
Low39 °F (May 23, 7:00 AM)49% (May 24, 4:00 PM)29.83 "Hg (May 14, 3:00 PM)
Average56 °F82%30.16 "Hg
* Reported May 12 2:00 AM — May 27 2:00 AM, Jujuy, Weather by CustomWeather, © 2016

Note: Actual official high and low records may vary slightly from our data, if they occured in-between our weather recording intervals... More about our weather records

Advertising

Jujuy Weather History for the Previous 24 Hours

Scroll right to see more
 ConditionsComfort  
Time TempWeatherWind HumidityBarometerVisibility
2:00 AM
Fri, May 27
54 °FMostly cloudy.2 mph88%30.27 "Hg5 mi
1:00 AM55 °FMostly cloudy.5 mph82%30.30 "Hg5 mi
12:00 AM55 °FMostly cloudy.7 mph82%30.33 "Hg5 mi
11:00 PM
Thu, May 26
55 °FMostly cloudy.5 mph77%30.30 "Hg5 mi
10:00 PM57 °FMostly cloudy.9 mph72%30.27 "HgN/A
9:00 PM57 °FMostly cloudy.7 mph72%30.27 "HgN/A
8:00 PM57 °FMostly cloudy.8 mph67%30.24 "HgN/A
7:00 PM59 °FMostly cloudy.8 mph63%30.21 "Hg6 mi
6:00 PM59 °FOvercast.9 mph68%30.21 "Hg6 mi
5:00 PM61 °FOvercast.10 mph59%30.18 "Hg6 mi
4:00 PM61 °FOvercast.13 mph63%30.18 "HgN/A
3:00 PM63 °FOvercast.10 mph59%30.21 "HgN/A
2:00 PM63 °FPartly sunny.13 mph59%30.24 "HgN/A
1:00 PM63 °FPartly sunny.13 mph56%30.27 "HgN/A
12:00 PM61 °FPartly sunny.9 mph63%30.27 "HgN/A
11:00 AM61 °FOvercast.9 mph68%30.27 "HgN/A
10:00 AM59 °FOvercast.6 mph68%30.27 "HgN/A
9:00 AM59 °FOvercast.3 mph68%30.24 "HgN/A
8:00 AM59 °FOvercast.3 mph68%30.21 "HgN/A
7:00 AM59 °FSunny.No wind68%30.18 "Hg10 mi
6:00 AM57 °FClear.7 mph82%30.18 "Hg10 mi
5:00 AM57 °FClear.3 mph88%30.15 "Hg10 mi
4:00 AM57 °FClear.3 mph88%30.15 "Hg10 mi
Weather by CustomWeather, © 2016

See weather overviewHow to use our weather pages